QPF
0.00 0.00 0.01 0.00 0.00 0.01 0.06 0.10 0.07 0.02 0.02 0.01 0.01 0.00 0.05 0.09 0.07 0.05 0.04 0.03 0.06 0.13
0.00 0.00 0.01 0.00 0.00 0.02 0.06 0.06 0.06 0.05 0.04 0.03 0.01 0.01 0.07 0.04 0.06 0.13 0.04 0.05 0.10 0.13
0.00 0.00 0.00 0.04 0.02 0.00 0.01 0.02 0.04 0.04 0.04 0.04 0.01 0.02 0.04 0.01 0.01 0.11 0.16 0.14 0.12 0.12
0.00 0.01 0.00 0.00 0.00 0.00 0.01 0.01 0.02 0.02 0.02 0.01 0.00 0.00 0.01 0.06 0.15 0.14 0.11 0.18 0.16 0.12
0.00 0.00 0.00 0.00 0.00 0.00 0.00 0.00 0.00 0.00 0.00 0.02 0.01 0.00 0.00 0.08 0.13 0.17 0.16 0.18 0.23 0.15
0.00 0.00 0.00 0.00 0.00 0.00 0.00 0.00 0.00 0.01 0.00 0.00 0.00 0.01 0.01 0.08 0.07 0.11 0.15 0.23 0.16 0.16
0.00 0.00 0.00 0.00 0.00 0.00 0.00 0.00 0.00 0.00 0.00 0.00 0.00 0.00 0.00 0.02 0.02 0.14 0.29 0.45 0.45 0.20
0.00 0.00 0.00 0.00 0.00 0.00 0.00 0.00 0.01 0.01 0.00 0.00 0.00 0.00 0.00 0.01 0.02 0.02 0.19 0.33 0.55 0.27
0.00 0.00 0.00 0.00 0.00 0.00 0.00 0.01 0.01 0.01 0.01 0.00 0.00 0.00 0.00 0.03 0.04 0.04 0.01 0.04 0.10 0.14
0.00 0.00 0.00 0.00 0.00 0.00 0.01 0.02 0.01 0.00 0.00 0.00 0.00 0.00 0.00 0.00 0.06 0.07 0.03 0.00 0.01 0.03
0.00 0.00 0.00 0.00 0.01 0.01 0.04 0.02 0.00 0.00 0.00 0.00 0.00 0.00 0.00 0.00 0.01 0.01 0.02 0.01 0.00 0.00
0.00 0.01 0.03 0.02 0.00 0.00 0.00 0.00 0.00 0.00 0.00 0.00 0.00 0.00 0.00 0.00 0.00 0.00 0.01 0.00 0.00 0.00
0.00 0.04 0.12 0.18 0.12 0.01 0.00 0.00 0.00 0.00 0.00 0.00 0.00 0.00 0.00 0.00 0.00 0.00 0.00 0.00 0.00 0.00
0.00 0.00 0.01 0.04 0.04 0.01 0.00 0.00 0.00 0.00 0.00 0.00 0.00 0.00 0.00 0.00 0.00 0.00 0.00 0.00 0.00 0.00
MSLP
1009.81 1010.28 1010.78 1011.11 1012.00 1012.49 1013.06 1013.68 1014.08 1014.68 1014.53 1014.12 1013.82 1013.76 1013.76 1014.04 1013.96 1014.06 1014.59 1014.54 1014.52 1014.66
1009.44 1009.95 1009.91 1011.10 1011.57 1012.01 1012.81 1012.92 1013.17 1013.68 1013.62 1013.48 1013.52 1013.37 1013.25 1013.18 1013.12 1013.66 1014.05 1013.95 1013.92 1014.12
1008.90 1009.49 1010.05 1010.72 1011.26 1011.64 1011.94 1012.21 1012.27 1012.38 1012.67 1012.91 1012.80 1012.93 1013.11 1012.60 1012.49 1012.86 1013.26 1013.43 1013.40 1013.59
1008.29 1009.14 1009.69 1010.20 1010.78 1011.23 1011.28 1011.38 1011.67 1011.86 1012.08 1012.14 1012.57 1012.88 1012.74 1012.44 1012.47 1012.61 1012.79 1012.99 1013.00 1012.97
1008.13 1008.85 1009.05 1009.37 1009.92 1010.30 1010.55 1010.80 1011.01 1011.29 1011.42 1011.47 1011.71 1011.97 1012.04 1012.04 1012.29 1012.21 1012.10 1012.25 1012.88 1012.95
1007.66 1008.13 1008.41 1008.88 1009.19 1009.64 1009.97 1010.19 1010.28 1010.64 1010.87 1011.04 1011.10 1011.54 1011.68 1011.87 1012.16 1012.00 1011.95 1012.29 1012.90 1013.09
1007.54 1007.66 1007.94 1008.47 1008.68 1008.97 1009.52 1009.74 1009.76 1009.99 1010.17 1010.46 1010.77 1011.06 1011.53 1011.55 1011.94 1012.20 1012.44 1012.74 1013.20 1013.27
1006.64 1006.94 1007.42 1008.01 1008.48 1008.81 1009.02 1009.32 1009.32 1009.52 1009.80 1010.16 1010.25 1010.43 1011.22 1011.33 1012.02 1012.35 1012.78 1013.01 1013.16 1013.08
1006.50 1006.94 1007.33 1007.78 1008.23 1008.56 1008.81 1008.86 1009.03 1009.13 1009.36 1009.66 1009.71 1010.61 1010.89 1011.12 1011.54 1012.02 1012.53 1012.91 1013.17 1013.45
1006.22 1006.80 1007.21 1007.51 1007.77 1008.10 1008.38 1008.72 1008.84 1008.92 1009.16 1009.49 1009.73 1010.78 1011.09 1011.23 1011.00 1011.33 1011.71 1012.23 1013.01 1013.37
1005.69 1005.97 1006.47 1006.86 1007.32 1007.86 1008.17 1008.46 1008.61 1008.84 1009.16 1009.36 1009.86 1010.72 1011.15 1011.22 1010.54 1010.76 1011.45 1011.79 1012.63 1013.24
1005.61 1005.54 1005.83 1006.42 1006.77 1006.99 1007.50 1008.04 1008.42 1008.80 1009.24 1009.43 1009.79 1010.45 1010.52 1010.89 1010.38 1010.08 1010.84 1011.51 1012.05 1012.60
1005.17 1005.50 1005.67 1005.67 1006.13 1006.79 1007.04 1007.42 1007.65 1008.31 1008.80 1009.24 1009.64 1010.71 1010.75 1010.52 1009.86 1009.98 1010.15 1010.75 1011.61 1012.55
1004.50 1004.99 1005.44 1005.86 1006.14 1006.56 1007.35 1007.19 1007.74 1008.08 1008.49 1009.01 1009.35 1010.06 1010.49 1010.68 1010.18 1009.68 1009.88 1009.93 1010.70 1011.71
Thickness
5790 5784 5780 5778 5770 5767 5762 5757 5753 5747 5749 5753 5757 5761 5763 5762 5765 5766 5760 5761 5765 5765
5789 5784 5784 5774 5771 5768 5761 5762 5760 5755 5756 5758 5760 5762 5764 5765 5767 5764 5760 5760 5765 5766
5790 5786 5781 5776 5770 5768 5767 5765 5765 5764 5761 5759 5761 5761 5760 5765 5768 5766 5764 5764 5766 5768
5792 5786 5781 5777 5772 5770 5771 5771 5767 5766 5762 5761 5757 5755 5757 5761 5763 5762 5763 5764 5766 5768
5791 5785 5783 5782 5778 5777 5774 5773 5770 5768 5765 5763 5760 5758 5758 5758 5759 5760 5762 5764 5761 5763
5791 5787 5785 5783 5782 5780 5777 5774 5775 5771 5768 5765 5763 5759 5759 5758 5755 5758 5760 5759 5755 5756
5789 5788 5787 5784 5783 5781 5777 5775 5775 5773 5771 5769 5766 5762 5758 5758 5754 5753 5751 5749 5746 5746
5797 5794 5791 5786 5782 5780 5778 5775 5776 5775 5772 5769 5767 5765 5757 5756 5749 5746 5741 5741 5738 5740
5795 5791 5787 5785 5781 5778 5776 5776 5775 5775 5773 5769 5770 5760 5758 5756 5750 5747 5740 5735 5732 5734
5796 5790 5786 5784 5782 5777 5775 5773 5772 5773 5772 5768 5767 5756 5754 5753 5756 5750 5746 5742 5734 5731
5799 5796 5791 5787 5782 5776 5774 5771 5771 5770 5769 5769 5765 5755 5751 5750 5758 5754 5747 5744 5737 5731
5797 5797 5793 5785 5782 5781 5775 5770 5767 5765 5763 5762 5761 5755 5754 5750 5754 5755 5748 5744 5741 5737
5797 5793 5790 5791 5785 5777 5775 5769 5767 5761 5759 5757 5755 5746 5747 5750 5754 5748 5749 5746 5740 5731
5796 5790 5785 5781 5778 5772 5762 5767 5760 5755 5753 5750 5749 5743 5740 5741 5747 5749 5746 5746 5740 5735